This is the latest recevied weather packets stored in our database for station/object VA3WWD-2. If no packets are shown the sender has not sent any weather packets the latest 10 day(s).
| Time | Temp. | Humidity | Pressure | Rain* | Wind** | Luminosity | Snow |
|---|---|---|---|---|---|---|---|
| 1778000200 | 8.33° C | 46% | - | 0 mm | 0 m/s | - | - |
| 1777999902 | 8.33° C | 45% | - | 0 mm | 0 m/s | - | - |
| 1777999604 | 8.89° C | 46% | - | 0 mm | 0 m/s | - | - |
| 1777999303 | 9.44° C | 45% | - | 0 mm | 0 m/s | - | - |
| 1777999005 | 8.89° C | 47% | - | 0 mm | 0 m/s | - | - |
| 1777998707 | 8.89° C | 48% | - | 0 mm | 0 m/s | - | - |
| 1777998406 | 8.33° C | 47% | - | 0 mm | 0 m/s | - | - |
| 1777998109 | 8.33° C | 47% | - | 0 mm | 0 m/s | - | - |
| 1777997810 | 8.89° C | 46% | - | 0 mm | 0 m/s | - | - |
| 1777997510 | 8.89° C | 48% | - | 0 mm | 0 m/s | - | - |
| 1777997212 | 8.33° C | 47% | - | 0 mm | 0 m/s | - | - |
| 1777996914 | 8.33° C | 50% | - | 0 mm | 0 m/s | - | - |
| 1777996613 | 9.44° C | 50% | - | 0 mm | 0 m/s | - | - |
| 1777996315 | 8.89° C | 47% | - | 0 mm | 0 m/s | - | - |
| 1777996017 | 8.89° C | 45% | - | 0 mm | 0 m/s | - | - |
| 1777995716 | 9.44° C | 48% | - | 0 mm | 0 m/s | - | - |
| 1777995418 | 9.44° C | 46% | - | 0 mm | 0 m/s | - | - |
| 1777995120 | 8.89° C | 43% | - | 0 mm | 0 m/s | - | - |
| 1777994819 | 10° C | 44% | - | 0 mm | 0 m/s | - | - |
| 1777994223 | 9.44° C | 45% | - | 0 mm | 0 m/s | - | - |
| 1777993922 | 9.44° C | 49% | - | 0 mm | 0 m/s | - | - |
| 1777993624 | 10° C | 47% | - | 0 mm | 0 m/s | - | - |
| 1777993326 | 8.89° C | 47% | - | 0 mm | 0 m/s | - | - |
| 1777993025 | 9.44° C | 46% | - | 0 mm | 0 m/s | - | - |
| 1777992727 | 10° C | 48% | - | 0 mm | 0 m/s | - | - |
* Rain latest hour (hover to see other rain measurements)
** Current wind speed in m/s (hover to see current wind gust speed)